• In India
  • List of Countries
  • For 7 days
  • Water Temperature
  • Satellite Maps
  • Weather Map
  • Weather Widgets
  • user-avatar
    Login

    Hourly Weather Elbasan

    Today, 19 February, Monday

    Time Temperature Precipitation Wind Pressure Humidity
    00:00 +8°C° 0.1 mm 2 mps 734 mmHg 85%
    01:00 +8°C° 0 mm 2 mps 734 mmHg 85%
    02:00 +7°C° 0.2 mm 2 mps 734 mmHg 85%
    03:00 +7°C° 0.2 mm 2 mps 734 mmHg 85%
    04:00 +7°C° 0.2 mm 2 mps 734 mmHg 85%
    05:00 +7°C° 0.2 mm 2 mps 734 mmHg 85%
    06:00 +7°C° 0.2 mm 2 mps 734 mmHg 85%
    07:00 +7°C° 0.2 mm 2 mps 734 mmHg 85%
    08:00 +8°C° 0.2 mm 2 mps 734 mmHg 83%
    09:00 +8°C° 0.2 mm 2 mps 734 mmHg 80%
    10:00 +9°C° 0.2 mm 2 mps 734 mmHg 78%
    11:00 +10°C° 0.2 mm 2 mps 733 mmHg 75%
    12:00 +10°C° 0.2 mm 2 mps 733 mmHg 73%
    13:00 +12°C° 0.2 mm 2 mps 733 mmHg 71%
    14:00 +10°C° 0.2 mm 2 mps 733 mmHg 73%
    15:00 +10°C° 0.2 mm 2 mps 732 mmHg 74%
    16:00 +10°C° 0.2 mm 2 mps 732 mmHg 76%
    17:00 +9°C° 0.2 mm 2 mps 732 mmHg 78%
    18:00 +9°C° 0.2 mm 2 mps 732 mmHg 81%
    19:00 +9°C° 0.2 mm 1 mps 732 mmHg 84%
    20:00 +8°C° 0.2 mm 2 mps 732 mmHg 84%
    21:00 +8°C° 0.2 mm 2 mps 732 mmHg 85%
    22:00 +8°C° 0.2 mm 2 mps 732 mmHg 85%
    23:00 +7°C° 0.3 mm 2 mps 732 mmHg 85%

    Tomorrow, 20 February, Tuesday

    Time Temperature Precipitation Wind Pressure Humidity
    00:00 +7°C° 0.3 mm 2 mps 732 mmHg 86%
    01:00 +7°C° 0.3 mm 2 mps 731 mmHg 86%
    02:00 +7°C° 0.2 mm 2 mps 731 mmHg 86%
    03:00 +7°C° 0.2 mm 2 mps 731 mmHg 86%
    04:00 +7°C° 0.2 mm 2 mps 730 mmHg 86%
    05:00 +7°C° 0.3 mm 2 mps 730 mmHg 86%
    06:00 +7°C° 0.3 mm 2 mps 730 mmHg 85%
    07:00 +7°C° 0.3 mm 2 mps 730 mmHg 85%
    08:00 +8°C° 0.2 mm 2 mps 730 mmHg 83%
    09:00 +8°C° 0.2 mm 3 mps 730 mmHg 80%
    10:00 +9°C° 0.2 mm 3 mps 730 mmHg 77%
    11:00 +10°C° 0.1 mm 3 mps 730 mmHg 75%
    12:00 +10°C° 0.1 mm 3 mps 730 mmHg 73%
    13:00 +11°C° 0.1 mm 3 mps 729 mmHg 71%
    14:00 +11°C° 0.1 mm 3 mps 729 mmHg 72%
    15:00 +10°C° 0.1 mm 3 mps 729 mmHg 74%
    16:00 +10°C° 0.1 mm 3 mps 728 mmHg 75%
    17:00 +9°C° 0.1 mm 3 mps 728 mmHg 77%
    18:00 +8°C° 0.1 mm 3 mps 728 mmHg 79%
    19:00 +7°C° 0.1 mm 3 mps 728 mmHg 81%
    20:00 +7°C° 0 mm 3 mps 728 mmHg 82%
    21:00 +5°C° 0 mm 3 mps 728 mmHg 82%
    22:00 +5°C° 0 mm 3 mps 728 mmHg 82%
    23:00 +5°C° 0.1 mm 3 mps 728 mmHg 83%

    Day after tomorrow, 21 February, Wednesday

    Time Temperature Precipitation Wind Pressure Humidity
    00:00 +5°C° 0.1 mm 3 mps 728 mmHg 83%
    01:00 +5°C° 0.1 mm 3 mps 728 mmHg 83%
    02:00 +5°C° 0.1 mm 3 mps 728 mmHg 84%
    03:00 +5°C° 0.1 mm 3 mps 728 mmHg 84%
    04:00 +5°C° 0.1 mm 3 mps 727 mmHg 84%
    05:00 +5°C° 0 mm 3 mps 727 mmHg 84%
    06:00 +5°C° 0 mm 3 mps 727 mmHg 83%
    07:00 +5°C° 0 mm 3 mps 727 mmHg 83%
    08:00 +7°C° 0.1 mm 3 mps 727 mmHg 79%
    09:00 +9°C° 0.1 mm 3 mps 728 mmHg 75%
    10:00 +10°C° 0.1 mm 3 mps 728 mmHg 72%
    11:00 +11°C° 0.2 mm 3 mps 728 mmHg 70%
    12:00 +11°C° 0.2 mm 3 mps 727 mmHg 69%
    13:00 +11°C° 0.2 mm 3 mps 727 mmHg 67%
    14:00 +11°C° 0.4 mm 3 mps 727 mmHg 70%
    15:00 +10°C° 0.4 mm 2 mps 727 mmHg 73%
    16:00 +10°C° 0.4 mm 2 mps 727 mmHg 76%
    17:00 +9°C° 0.2 mm 2 mps 727 mmHg 78%
    18:00 +9°C° 0.2 mm 2 mps 727 mmHg 80%
    19:00 +8°C° 0.2 mm 3 mps 727 mmHg 82%
    20:00 +8°C° 0 mm 3 mps 727 mmHg 82%
    21:00 +8°C° 0 mm 3 mps 727 mmHg 82%
    22:00 +7°C° 0 mm 3 mps 727 mmHg 83%
    23:00 +7°C° 0 mm 3 mps 727 mmHg 83%

    22 February, Thursday

    Time Temperature Precipitation Wind Pressure Humidity
    00:00 +7°C° 0 mm 3 mps 727 mmHg 83%
    01:00 +7°C° 0 mm 3 mps 727 mmHg 83%
    02:00 +7°C° 0.1 mm 3 mps 727 mmHg 83%
    03:00 +7°C° 0.1 mm 3 mps 727 mmHg 83%
    04:00 +7°C° 0.1 mm 3 mps 726 mmHg 83%
    05:00 +7°C° 0.3 mm 3 mps 727 mmHg 83%
    06:00 +7°C° 0.3 mm 3 mps 727 mmHg 83%
    07:00 +7°C° 0.3 mm 3 mps 727 mmHg 83%
    08:00 +8°C° 0.3 mm 3 mps 727 mmHg 81%
    09:00 +8°C° 0.3 mm 3 mps 728 mmHg 80%
    10:00 +9°C° 0.3 mm 3 mps 728 mmHg 79%
    11:00 +10°C° 0 mm 3 mps 728 mmHg 74%
    12:00 +11°C° 0 mm 3 mps 728 mmHg 70%
    13:00 +12°C° 0 mm 3 mps 728 mmHg 66%
    14:00 +12°C° 0 mm 3 mps 728 mmHg 67%
    15:00 +12°C° 0 mm 3 mps 728 mmHg 67%
    16:00 +12°C° 0 mm 3 mps 728 mmHg 68%
    17:00 +11°C° 0 mm 3 mps 728 mmHg 72%
    18:00 +10°C° 0 mm 3 mps 729 mmHg 76%
    19:00 +9°C° 0 mm 2 mps 729 mmHg 81%
    20:00 +8°C° 0 mm 2 mps 729 mmHg 81%
    21:00 +8°C° 0 mm 2 mps 730 mmHg 82%
    22:00 +7°C° 0 mm 3 mps 730 mmHg 83%
    23:00 +7°C° 0 mm 3 mps 730 mmHg 84%

    23 February, Friday

    Time Temperature Precipitation Wind Pressure Humidity
    00:00 +7°C° 0 mm 3 mps 730 mmHg 85%
    01:00 +7°C° 0 mm 3 mps 730 mmHg 85%
    02:00 +7°C° 0 mm 3 mps 730 mmHg 85%
    03:00 +7°C° 0 mm 3 mps 729 mmHg 86%
    04:00 +5°C° 0 mm 3 mps 729 mmHg 86%
    05:00 +7°C° 0 mm 3 mps 729 mmHg 86%
    06:00 +7°C° 0 mm 3 mps 729 mmHg 85%
    07:00 +7°C° 0 mm 3 mps 729 mmHg 85%
    08:00 +9°C° 0 mm 3 mps 730 mmHg 79%
    09:00 +10°C° 0 mm 3 mps 730 mmHg 73%
    10:00 +12°C° 0 mm 3 mps 730 mmHg 67%
    11:00 +13°C° 0 mm 3 mps 729 mmHg 63%
    12:00 +14°C° 0 mm 4 mps 729 mmHg 58%
    13:00 +15°C° 0 mm 4 mps 729 mmHg 54%
    14:00 +14°C° 0 mm 4 mps 728 mmHg 56%
    15:00 +14°C° 0 mm 4 mps 728 mmHg 58%
    16:00 +13°C° 0 mm 4 mps 728 mmHg 60%
    17:00 +12°C° 0.2 mm 4 mps 728 mmHg 65%
    18:00 +11°C° 0.2 mm 4 mps 728 mmHg 69%
    19:00 +10°C° 0.2 mm 3 mps 728 mmHg 73%
    20:00 +10°C° 0.6 mm 3 mps 728 mmHg 76%
    21:00 +10°C° 0.6 mm 3 mps 728 mmHg 78%
    22:00 +10°C° 0.6 mm 3 mps 728 mmHg 81%
    23:00 +10°C° 1.6 mm 3 mps 728 mmHg 84%

    24 February, Saturday

    Time Temperature Precipitation Wind Pressure Humidity
    00:00 +10°C° 1.6 mm 3 mps 728 mmHg 88%
    01:00 +9°C° 1.6 mm 3 mps 728 mmHg 91%
    02:00 +9°C° 0.5 mm 2 mps 728 mmHg 92%
    03:00 +9°C° 0.5 mm 2 mps 728 mmHg 92%
    04:00 +8°C° 0.5 mm 2 mps 729 mmHg 92%
    05:00 +9°C° 0 mm 1 mps 729 mmHg 92%
    06:00 +9°C° 0 mm 1 mps 729 mmHg 91%
    07:00 +8°C° 0 mm 1 mps 729 mmHg 91%
    08:00 +8°C° 0 mm 2 mps 729 mmHg 80%
    09:00 +9°C° 0 mm 2 mps 730 mmHg 70%
    10:00 +10°C° 0 mm 3 mps 730 mmHg 59%
    11:00 +11°C° 0.1 mm 3 mps 730 mmHg 59%
    12:00 +11°C° 0.1 mm 4 mps 730 mmHg 58%
    13:00 +11°C° 0.1 mm 4 mps 730 mmHg 58%
    14:00 +11°C° 0.1 mm 4 mps 730 mmHg 61%
    15:00 +10°C° 0.1 mm 4 mps 730 mmHg 64%
    16:00 +10°C° 0.1 mm 3 mps 730 mmHg 67%
    17:00 +9°C° 0.2 mm 3 mps 731 mmHg 73%
    18:00 +8°C° 0.2 mm 2 mps 731 mmHg 79%
    19:00 +8°C° 0.2 mm 1 mps 732 mmHg 85%
    20:00 +8°C° 0.3 mm 1 mps 732 mmHg 84%
    21:00 +6°C° 0.3 mm 2 mps 733 mmHg 84%
    22:00 +6°C° 0.3 mm 2 mps 733 mmHg 83%
    23:00 +6°C° 0.3 mm 2 mps 733 mmHg 84%
    Show more